User: anonymous   Login
Location: Los Gatos B&B
(42.6926°N, 77.0646°W)
Time: 05:00:35
(UTC-04:00)
Language:

SL-16 R/B - Orbit

View from above orbital plane
View from above orbital plane
View from above satellite
View from above satellite

Ground track
Ground track

The orbit data is extracted from the following two-line orbital elements,

1 28353U 04021B   16120.50104618 -.00000312  00000-0 -13862-3 0  9994
2 28353  71.0015 226.0142 0002912 123.0424 237.0978 14.14172075613675
Epoch (UTC): 29 April 2016 12:01:30
Eccentricity: 0.0002912
inclination: 71.0015°
perigee height: 843 km
apogee height: 847 km
right ascension of ascending node: 226.0142°
argument of perigee: 123.0424°
revolutions per day: 14.14172075
mean anomaly at epoch: 237.0978°
orbit number at epoch: 61367

The dashed part of the orbit path shows where the satellite is in the earth's shadow,  

DLR